DW1232 Weather Reports


time (UTC)temp
F
wind
direction
speed
knots
gust
knots
rain 1hr
in
rain 24hr
in
rain mn
in
humidity
%
barometer
mb
20260906225422 91 215 3.5 8.7 0.00 0.00 0.00 47 1006.7
20260906223246 91 150 4.3 7.8 0.00 0.00 0.00 47 1006.8
20260906221117 90 135 1.7 7.8 0.00 0.00 0.00 48 1007.0
20260906220106 90 114 3.5 7.8 0.00 0.00 0.00 48 1007.1
20260906215045 92 236 1.7 7.0 0.00 0.00 0.00 46 1007.0
20260906212940 91 170 3.5 7.8 0.00 0.00 0.00 48 1007.4
20260906211913 91 145 3.5 7.8 0.00 0.00 0.00 48 1007.4
20260906210857 90 187 3.5 7.8 0.00 0.00 0.00 49 1007.5
20260906205835 89 182 4.3 7.8 0.00 0.00 0.00 50 1007.7
20260906204855 91 175 1.7 7.0 0.00 0.00 0.00 48 1008.0
20260906203838 91 208 3.5 7.0 0.00 0.00 0.00 48 1007.9
20260906202855 89 167 3.5 7.0 0.00 0.00 0.00 50 1008.0
20260906201849 89 184 2.6 6.1 0.00 0.00 0.00 50 1008.1
20260906195655 92 196 4.3 7.8 0.00 0.00 0.00 48 1008.0
20260906194623 92 146 3.5 10.4 0.00 0.00 0.00 48 1008.2
20260906193558 90 261 3.5 10.4 0.00 0.00 0.00 50 1008.3
20260906191514 89 129 0.9 7.0 0.00 0.00 0.00 50 1008.8
20260906190456 89 142 2.6 7.0 0.00 0.00 0.00 51 1008.8
20260906185457 89 151 1.7 6.1 0.00 0.00 0.00 50 1008.8
20260906184454 89 78 0.9 4.3 0.00 0.00 0.00 51 1008.9
20260906183422 89 99 1.7 5.2 0.00 0.00 0.00 51 1009.1
20260906182358 89 90 1.7 7.8 0.00 0.00 0.00 50 1009.2
20260906181329 91 176 3.5 7.8 0.00 0.00 0.00 49 1009.4
20260906180328 91 127 2.6 6.1 0.00 0.00 0.00 50 1009.6
20260906174206 89 161 4.3 9.6 0.00 0.00 0.00 52 1009.9
20260906173148 87 168 3.5 8.7 0.00 0.00 0.00 53 1010.0
20260906172141 88 140 4.3 8.7 0.00 0.00 0.00 53 1010.1
20260906171156 86 133 1.7 6.1 0.00 0.00 0.00 54 1010.2
20260906170159 87 125 1.7 6.1 0.00 0.00 0.00 53 1010.4
20260906165221 87 89 0.9 8.7 0.00 0.00 0.00 54 1010.5
20260906164223 88 89 2.6 8.7 0.00 0.00 0.00 51 1010.5
20260906162044 89 120 0.9 7.0 0.00 0.00 0.00 53 1010.6
20260906161027 88 44 0.9 7.0 0.00 0.00 0.00 55 1010.6
20260906155956 87 308 0.9 4.3 0.00 0.00 0.00 56 1010.5
20260906155016 86 304 0.9 7.0 0.00 0.00 0.00 59 1010.4
20260906154001 85 304 1.7 7.0 0.00 0.00 0.00 59 1010.3
20260906152958 84 290 0.9 4.3 0.00 0.00 0.00 61 1010.4
20260906152022 83 288 1.7 5.2 0.00 0.00 0.00 63 1010.3
20260906151042 83 301 1.7 5.2 0.00 0.00 0.00 64 1010.3
20260906144843 82 299 0.9 6.1 0.00 0.00 0.00 66 1010.3
20260906143818 81 235 0.9 4.3 0.00 0.00 0.00 66 1010.3
20260906141654 80 225 0.9 4.3 0.00 0.00 0.00 69 1010.3
20260906135515 77 176 0.0 0.0 0.00 0.00 0.00 73 1010.2
20260906134508 76 165 0.0 2.6 0.00 0.00 0.00 75 1010.2
20260906133516 74 159 0.0 0.0 0.00 0.00 0.00 80 1010.2
20260906132539 72 159 0.0 0.0 0.00 0.00 0.00 83 1010.1
20260906131550 70 159 0.0 0.0 0.00 0.00 0.00 86 1010.1
20260906130531 70 159 0.0 0.0 0.00 0.00 0.00 86 1010.1
20260906124429 69 159 0.0 0.0 0.00 0.00 0.00 87 1009.9
20260906123410 68 159 0.0 0.0 0.00 0.00 0.00 87 1009.7
20260906122349 68 159 0.0 0.0 0.00 0.00 0.00 87 1009.5
20260906121335 68 159 0.0 0.0 0.00 0.00 0.00 87 1009.5
20260906115206 68 159 0.0 0.0 0.00 0.00 0.00 86 1009.4
20260906114224 68 159 0.0 0.0 0.00 0.00 0.00 86 1009.4
20260906113216 68 159 0.0 0.0 0.00 0.00 0.00 86 1009.2
20260906112210 68 159 0.0 0.0 0.00 0.00 0.00 85 1009.1
20260906111150 68 159 0.0 0.0 0.00 0.00 0.00 85 1009.0
20260906110133 69 159 0.0 0.0 0.00 0.00 0.00 84 1008.9
20260906105102 69 159 0.0 0.0 0.00 0.00 0.00 84 1008.9
20260906102849 70 159 0.0 0.0 0.00 0.00 0.00 84 1008.9
20260906101815 70 159 0.0 0.0 0.00 0.00 0.00 83 1008.9
20260906100759 70 159 0.0 0.0 0.00 0.00 0.00 82 1008.7
20260906095755 71 159 0.0 0.0 0.00 0.00 0.00 82 1008.7
20260906094724 71 159 0.0 0.0 0.00 0.00 0.00 82 1008.8
20260906093726 71 159 0.0 0.0 0.00 0.00 0.00 82 1008.7
20260906092714 71 159 0.0 0.0 0.00 0.00 0.00 81 1008.7
20260906090545 72 159 0.0 0.0 0.00 0.00 0.00 80 1008.7
20260906085528 72 159 0.0 0.0 0.00 0.00 0.00 80 1008.6
20260906084532 72 159 0.0 0.0 0.00 0.00 0.00 80 1008.5
20260906082403 72 159 0.0 0.0 0.00 0.00 0.00 80 1008.2
20260906081425 72 159 0.0 0.0 0.00 0.00 0.00 79 1008.5
20260906080353 72 159 0.0 0.0 0.00 0.00 0.00 79 1008.6
20260906074241 72 159 0.0 0.0 0.00 0.00 0.00 78 1008.8
20260906073258 72 159 0.0 0.9 0.00 0.00 0.00 78 1008.9
20260906072245 73 159 0.0 0.0 0.00 0.00 0.00 77 1008.9
20260906071252 73 159 0.0 2.6 0.00 0.00 0.00 77 1009.1
20260906070234 74 159 0.0 0.0 0.00 0.00 0.00 75 1009.1
20260906065240 74 159 0.0 0.0 0.00 0.00 0.00 75 1009.2
20260906064239 74 159 0.0 4.3 0.00 0.00 0.00 75 1009.3
20260906062110 75 160 0.0 2.6 0.00 0.00 0.00 74 1009.3
20260906055923 76 158 0.9 4.3 0.00 0.00 0.00 72 1009.4
20260906054947 76 156 0.9 6.1 0.00 0.00 0.00 72 1009.5
20260906053935 77 156 2.6 6.1 0.00 0.00 0.00 72 1009.6
20260906052909 77 158 2.6 5.2 0.00 0.00 0.00 71 1009.5
20260906051924 77 142 2.6 5.2 0.00 0.00 0.00 71 1009.6
20260906044629 78 143 3.5 6.1 0.00 0.00 0.00 68 1009.5
20260906043653 78 147 3.5 5.2 0.00 0.00 0.00 67 1009.6
20260906042634 78 149 2.6 6.1 0.00 0.00 0.00 66 1009.5
20260906041621 78 146 2.6 6.1 0.00 0.00 0.00 64 1009.3
20260906040640 78 146 1.7 5.2 0.00 0.00 0.00 62 1009.3
20260906035633 78 146 2.6 8.7 0.00 0.00 0.00 61 1009.3
20260906034611 78 147 3.5 8.7 0.00 0.00 0.00 61 1009.1
20260906033611 76 135 0.0 3.5 0.00 0.00 0.00 64 1009.2
20260906032622 76 135 0.0 0.0 0.00 0.00 0.00 63 1008.9
20260906031636 77 135 0.0 0.0 0.00 0.00 0.00 61 1008.8
20260906030648 78 135 0.0 0.0 0.00 0.00 0.00 60 1008.8
20260906025618 78 135 0.0 0.0 0.00 0.00 0.00 59 1008.6
20260906024545 78 135 0.0 0.0 0.00 0.00 0.00 59 1008.5
20260906023520 78 135 0.0 0.0 0.00 0.00 0.00 58 1008.3
20260906022446 79 135 0.0 0.0 0.00 0.00 0.00 58 1008.2
20260906021457 79 135 0.0 0.0 0.00 0.00 0.00 58 1008.1
20260906020505 80 135 0.0 0.0 0.00 0.00 0.00 56 1007.9
20260906015453 81 135 0.0 0.0 0.00 0.00 0.00 55 1007.7
20260906014429 82 135 0.0 0.0 0.00 0.00 0.00 53 1007.7
20260906013446 83 135 0.0 2.6 0.00 0.00 0.00 51 1007.6
20260906012451 84 135 0.9 0.0 0.00 0.00 0.00 50 1007.4
20260906010323 86 135 0.9 5.2 0.00 0.00 0.00 48 1007.2
20260906005308 86 135 2.6 5.2 0.00 0.00 0.00 48 1007.1
20260906004245 87 140 2.6 7.8 0.00 0.00 0.00 47 1007.1
20260906003257 88 136 3.5 7.8 0.00 0.00 0.00 46 1007.1
20260906002312 88 152 3.5 7.8 0.00 0.00 0.00 45 1007.1
20260905235028 90 105 2.6 7.0 0.00 0.00 0.00 43 1007.0
20260905234010 91 125 2.6 10.4 0.00 0.00 0.00 43 1006.9
20260905232945 91 144 3.5 10.4 0.00 0.00 0.00 43 1006.8
20260905231942 91 116 4.3 8.7 0.00 0.00 0.00 42 1006.8
20260905230949 91 182 3.5 8.7 0.00 0.00 0.00 42 1006.8
20260905230003 92 143 3.5 8.7 0.00 0.00 0.00 43 1006.8